| time (UTC) | temp F | wind direction | speed MPH | gust MPH | rain 1hr in | rain 24hr in | rain mn in | humidity % | barometer mb |
| 20260506202013 | 57 | 225 | 1.0 | 2.0 | 0.00 | 0.00 | 0.00 | 91 | 1006.4 |
| 20260506201527 | 57 | 211 | 0.0 | 3.0 | 0.00 | 0.00 | 0.00 | 91 | 1006.5 |
| 20260506201009 | 57 | 212 | 1.0 | 3.0 | 0.00 | 0.00 | 0.00 | 91 | 1006.6 |
| 20260506200509 | 57 | 217 | 1.0 | 2.0 | 0.00 | 0.00 | 0.00 | 91 | 1006.7 |
| 20260506200026 | 57 | 56 | 1.0 | 4.0 | 0.00 | 0.00 | 0.00 | 91 | 1006.6 |
| 20260506195509 | 57 | 208 | 1.0 | 4.0 | 0.00 | 0.00 | 0.00 | 91 | 1006.6 |
| 20260506195010 | 57 | 170 | 0.0 | 3.0 | 0.00 | 0.00 | 0.00 | 91 | 1006.6 |
| 20260506194530 | 57 | 142 | 1.0 | 4.0 | 0.00 | 0.00 | 0.00 | 91 | 1006.7 |
| 20260506194009 | 57 | 140 | 1.0 | 4.0 | 0.00 | 0.00 | 0.00 | 91 | 1006.7 |
| 20260506193509 | 58 | 152 | 1.0 | 3.0 | 0.00 | 0.00 | 0.00 | 91 | 1006.8 |
| 20260506193019 | 58 | 191 | 1.0 | 2.0 | 0.00 | 0.00 | 0.00 | 91 | 1006.8 |
| 20260506192507 | 58 | 180 | 0.0 | 1.0 | 0.00 | 0.00 | 0.00 | 92 | 1006.8 |
| 20260506192011 | 58 | 150 | 0.0 | 1.0 | 0.00 | 0.00 | 0.00 | 92 | 1006.8 |
| 20260506191524 | 57 | 192 | 0.0 | 2.0 | 0.00 | 0.00 | 0.00 | 92 | 1006.8 |
| 20260506191007 | 57 | 158 | 0.0 | 2.0 | 0.00 | 0.00 | 0.00 | 92 | 1006.9 |
| 20260506190510 | 57 | 143 | 1.0 | 2.0 | 0.00 | 0.00 | 0.00 | 92 | 1006.9 |
| 20260506190025 | 57 | 97 | 0.0 | 3.0 | 0.00 | 0.00 | 0.00 | 92 | 1006.9 |
| 20260506185509 | 57 | 164 | 0.0 | 3.0 | 0.00 | 0.00 | 0.00 | 92 | 1007.0 |
| 20260506185008 | 57 | 150 | 1.0 | 2.0 | 0.00 | 0.00 | 0.00 | 92 | 1007.0 |
| 20260506184528 | 57 | 201 | 1.0 | 2.0 | 0.00 | 0.00 | 0.00 | 92 | 1007.2 |
| 20260506184010 | 57 | 146 | 0.0 | 3.0 | 0.00 | 0.00 | 0.00 | 93 | 1007.2 |
| 20260506183512 | 57 | 107 | 1.0 | 3.0 | 0.00 | 0.00 | 0.00 | 92 | 1007.2 |
| 20260506183026 | 57 | 101 | 0.0 | 2.0 | 0.00 | 0.00 | 0.00 | 93 | 1007.2 |
| 20260506182510 | 56 | 153 | 1.0 | 2.0 | 0.00 | 0.00 | 0.00 | 92 | 1007.2 |
| 20260506182011 | 56 | 96 | 1.0 | 2.0 | 0.00 | 0.00 | 0.00 | 93 | 1007.4 |
| 20260506181526 | 56 | 160 | 1.0 | 2.0 | 0.00 | 0.00 | 0.00 | 92 | 1007.4 |
| 20260506181012 | 56 | 140 | 0.0 | 3.0 | 0.00 | 0.00 | 0.00 | 93 | 1007.5 |
| 20260506180514 | 56 | 109 | 1.0 | 3.0 | 0.00 | 0.00 | 0.00 | 92 | 1007.5 |
| 20260506180033 | 56 | 147 | 1.0 | 3.0 | 0.00 | 0.00 | 0.00 | 92 | 1007.5 |
| 20260506175511 | 56 | 172 | 1.0 | 2.0 | 0.00 | 0.00 | 0.00 | 93 | 1007.5 |
| 20260506175011 | 56 | 144 | 0.0 | 3.0 | 0.00 | 0.00 | 0.00 | 93 | 1007.5 |
| 20260506174527 | 56 | 208 | 1.0 | 3.0 | 0.00 | 0.00 | 0.00 | 92 | 1007.5 |
| 20260506174011 | 56 | 182 | 1.0 | 3.0 | 0.00 | 0.00 | 0.00 | 93 | 1007.6 |
| 20260506173505 | 56 | 85 | 1.0 | 3.0 | 0.00 | 0.00 | 0.00 | 92 | 1007.6 |
| 20260506173014 | 56 | 142 | 1.0 | 2.0 | 0.00 | 0.00 | 0.00 | 92 | 1007.6 |
| 20260506172505 | 56 | 146 | 0.0 | 3.0 | 0.00 | 0.00 | 0.00 | 92 | 1007.5 |
| 20260506172007 | 56 | 66 | 1.0 | 3.0 | 0.00 | 0.00 | 0.00 | 92 | 1007.6 |
| 20260506171536 | 56 | 150 | 1.0 | 2.0 | 0.00 | 0.00 | 0.00 | 92 | 1007.6 |
| 20260506171008 | 56 | 146 | 1.0 | 3.0 | 0.00 | 0.00 | 0.00 | 92 | 1007.6 |
| 20260506170509 | 56 | 191 | 1.0 | 3.0 | 0.00 | 0.00 | 0.00 | 92 | 1007.6 |
| 20260506170023 | 56 | 75 | 1.0 | 3.0 | 0.00 | 0.00 | 0.00 | 92 | 1007.6 |
| 20260506165506 | 56 | 174 | 1.0 | 4.0 | 0.00 | 0.00 | 0.00 | 92 | 1007.5 |
| 20260506165006 | 56 | 161 | 2.0 | 4.0 | 0.00 | 0.00 | 0.00 | 93 | 1007.6 |
| 20260506164524 | 56 | 125 | 1.0 | 3.0 | 0.00 | 0.00 | 0.00 | 93 | 1007.6 |
| 20260506164011 | 56 | 152 | 1.0 | 3.0 | 0.00 | 0.00 | 0.00 | 93 | 1007.6 |
| 20260506163507 | 56 | 96 | 0.0 | 4.0 | 0.00 | 0.00 | 0.00 | 93 | 1007.6 |
| 20260506163029 | 56 | 150 | 2.0 | 4.0 | 0.00 | 0.00 | 0.00 | 92 | 1007.8 |
| 20260506162509 | 56 | 150 | 1.0 | 4.0 | 0.00 | 0.00 | 0.00 | 93 | 1007.9 |
| 20260506162014 | 56 | 122 | 1.0 | 4.0 | 0.00 | 0.00 | 0.00 | 92 | 1007.7 |
| 20260506161521 | 56 | 119 | 1.0 | 6.0 | 0.00 | 0.00 | 0.00 | 92 | 1007.7 |
| 20260506161005 | 56 | 141 | 1.0 | 6.0 | 0.00 | 0.00 | 0.00 | 92 | 1007.6 |
| 20260506160507 | 56 | 136 | 1.0 | 7.0 | 0.00 | 0.00 | 0.00 | 92 | 1007.8 |
| 20260506160020 | 56 | 146 | 2.0 | 7.0 | 0.00 | 0.00 | 0.00 | 92 | 1007.8 |
| 20260506155511 | 56 | 62 | 1.0 | 4.0 | 0.00 | 0.00 | 0.00 | 92 | 1007.9 |
| 20260506155009 | 56 | 134 | 1.0 | 2.0 | 0.00 | 0.00 | 0.00 | 92 | 1007.9 |
| 20260506154525 | 56 | 162 | 1.0 | 2.0 | 0.00 | 0.00 | 0.00 | 92 | 1008.0 |
| 20260506154011 | 56 | 91 | 0.0 | 3.0 | 0.00 | 0.00 | 0.00 | 92 | 1008.1 |
| 20260506153514 | 56 | 94 | 1.0 | 5.0 | 0.00 | 0.00 | 0.00 | 92 | 1008.5 |
| 20260506153025 | 56 | 131 | 1.0 | 5.0 | 0.00 | 0.00 | 0.00 | 92 | 1008.6 |
| 20260506152507 | 56 | 143 | 1.0 | 4.0 | 0.00 | 0.00 | 0.00 | 92 | 1008.5 |
| 20260506152011 | 56 | 108 | 1.0 | 4.0 | 0.00 | 0.00 | 0.00 | 92 | 1008.3 |
| 20260506151526 | 56 | 134 | 1.0 | 3.0 | 0.00 | 0.00 | 0.00 | 91 | 1008.1 |
| 20260506151009 | 56 | 144 | 1.0 | 4.0 | 0.00 | 0.00 | 0.00 | 92 | 1008.1 |
| 20260506150511 | 56 | 202 | 1.0 | 4.0 | 0.00 | 0.00 | 0.00 | 91 | 1008.1 |
| 20260506150023 | 56 | 132 | 1.0 | 4.0 | 0.00 | 0.00 | 0.00 | 92 | 1008.1 |
| 20260506145506 | 56 | 144 | 1.0 | 4.0 | 0.00 | 0.00 | 0.00 | 91 | 1008.1 |
| 20260506145008 | 56 | 110 | 1.0 | 3.0 | 0.00 | 0.00 | 0.00 | 91 | 1008.1 |
| 20260506144519 | 56 | 167 | 1.0 | 3.0 | 0.00 | 0.00 | 0.00 | 91 | 1008.2 |
| 20260506144007 | 56 | 151 | 0.0 | 3.0 | 0.00 | 0.00 | 0.00 | 91 | 1008.2 |
| 20260506143508 | 56 | 77 | 1.0 | 3.0 | 0.00 | 0.00 | 0.00 | 91 | 1008.3 |
| 20260506143024 | 56 | 76 | 1.0 | 2.0 | 0.00 | 0.00 | 0.00 | 90 | 1008.3 |
| 20260506142509 | 56 | 123 | 0.0 | 2.0 | 0.00 | 0.00 | 0.00 | 91 | 1008.5 |
| 20260506142012 | 56 | 117 | 1.0 | 2.0 | 0.00 | 0.00 | 0.00 | 90 | 1008.6 |
| 20260506141526 | 56 | 127 | 0.0 | 2.0 | 0.00 | 0.00 | 0.00 | 90 | 1008.6 |
| 20260506141013 | 56 | 141 | 1.0 | 2.0 | 0.00 | 0.00 | 0.00 | 90 | 1008.8 |
| 20260506140511 | 56 | 159 | 0.0 | 2.0 | 0.00 | 0.00 | 0.00 | 90 | 1008.8 |
| 20260506140028 | 56 | 146 | 0.0 | 2.0 | 0.00 | 0.00 | 0.00 | 90 | 1008.9 |
| 20260506135509 | 56 | 63 | 1.0 | 2.0 | 0.00 | 0.00 | 0.00 | 90 | 1008.9 |
| 20260506135020 | 56 | 141 | 1.0 | 2.0 | 0.00 | 0.00 | 0.00 | 90 | 1009.0 |
| 20260506134603 | 56 | 144 | 0.0 | 2.0 | 0.00 | 0.00 | 0.00 | 90 | 1008.9 |
| 20260506134005 | 56 | 153 | 1.0 | 2.0 | 0.00 | 0.00 | 0.00 | 90 | 1009.0 |
| 20260506133508 | 56 | 143 | 0.0 | 2.0 | 0.00 | 0.00 | 0.00 | 89 | 1009.0 |
| 20260506133022 | 56 | 181 | 0.0 | 2.0 | 0.00 | 0.00 | 0.00 | 89 | 1009.2 |
| 20260506132510 | 57 | 76 | 1.0 | 4.0 | 0.00 | 0.00 | 0.00 | 88 | 1009.1 |
| 20260506132007 | 57 | 63 | 0.0 | 4.0 | 0.00 | 0.00 | 0.00 | 89 | 1009.1 |
| 20260506131527 | 57 | 153 | 2.0 | 3.0 | 0.00 | 0.00 | 0.00 | 88 | 1009.2 |
| 20260506131011 | 57 | 150 | 0.0 | 2.0 | 0.00 | 0.00 | 0.00 | 88 | 1009.2 |
| 20260506130509 | 57 | 152 | 1.0 | 2.0 | 0.00 | 0.00 | 0.00 | 87 | 1009.2 |
| 20260506130026 | 57 | 50 | 1.0 | 2.0 | 0.00 | 0.00 | 0.00 | 86 | 1009.1 |
| 20260506125512 | 57 | 97 | 1.0 | 3.0 | 0.00 | 0.00 | 0.00 | 86 | 1009.1 |
| 20260506125009 | 57 | 144 | 1.0 | 3.0 | 0.00 | 0.00 | 0.00 | 86 | 1009.1 |
| 20260506124526 | 57 | 141 | 0.0 | 3.0 | 0.00 | 0.00 | 0.00 | 85 | 1008.9 |
| 20260506124009 | 57 | 140 | 0.0 | 2.0 | 0.00 | 0.00 | 0.00 | 85 | 1008.9 |
| 20260506123507 | 57 | 105 | 1.0 | 2.0 | 0.00 | 0.00 | 0.00 | 85 | 1009.0 |
| 20260506123026 | 57 | 75 | 1.0 | 2.0 | 0.00 | 0.00 | 0.00 | 85 | 1008.9 |
| 20260506122508 | 57 | 86 | 1.0 | 2.0 | 0.00 | 0.00 | 0.00 | 85 | 1008.8 |
| 20260506122007 | 57 | 99 | 1.0 | 2.0 | 0.00 | 0.00 | 0.00 | 85 | 1008.8 |
| 20260506121519 | 57 | 129 | 0.0 | 3.0 | 0.00 | 0.00 | 0.00 | 84 | 1008.8 |
| 20260506121009 | 57 | 117 | 0.0 | 3.0 | 0.00 | 0.00 | 0.00 | 84 | 1008.8 |
| 20260506120506 | 57 | 67 | 0.0 | 3.0 | 0.00 | 0.00 | 0.00 | 84 | 1008.8 |
| 20260506120024 | 57 | 154 | 1.0 | 3.0 | 0.00 | 0.00 | 0.00 | 82 | 1008.8 |
| 20260506115515 | 58 | 143 | 1.0 | 3.0 | 0.00 | 0.00 | 0.00 | 82 | 1008.9 |
| 20260506115007 | 58 | 99 | 1.0 | 3.0 | 0.00 | 0.00 | 0.00 | 82 | 1009.0 |
| 20260506114534 | 58 | 186 | 1.0 | 4.0 | 0.00 | 0.00 | 0.00 | 81 | 1009.1 |
| 20260506114009 | 58 | 97 | 1.0 | 4.0 | 0.00 | 0.00 | 0.00 | 81 | 1009.0 |
| 20260506113510 | 58 | 75 | 1.0 | 4.0 | 0.00 | 0.00 | 0.00 | 79 | 1008.9 |
| 20260506113033 | 58 | 85 | 1.0 | 4.0 | 0.00 | 0.00 | 0.00 | 78 | 1008.9 |
| 20260506112510 | 58 | 80 | 0.0 | 3.0 | 0.00 | 0.00 | 0.00 | 77 | 1008.9 |
| 20260506112015 | 59 | 125 | 1.0 | 4.0 | 0.00 | 0.00 | 0.00 | 76 | 1009.0 |
| 20260506111525 | 59 | 97 | 0.0 | 4.0 | 0.00 | 0.00 | 0.00 | 76 | 1008.8 |
| 20260506111006 | 59 | 93 | 1.0 | 4.0 | 0.00 | 0.00 | 0.00 | 76 | 1008.8 |
| 20260506110509 | 59 | 134 | 1.0 | 2.0 | 0.00 | 0.00 | 0.00 | 76 | 1008.9 |
| 20260506110021 | 59 | 65 | 1.0 | 3.0 | 0.00 | 0.00 | 0.00 | 76 | 1008.8 |
| 20260506105508 | 59 | 137 | 0.0 | 3.0 | 0.00 | 0.00 | 0.00 | 75 | 1008.6 |
| 20260506105010 | 59 | 70 | 1.0 | 3.0 | 0.00 | 0.00 | 0.00 | 75 | 1008.6 |
| 20260506104526 | 59 | 140 | 0.0 | 3.0 | 0.00 | 0.00 | 0.00 | 75 | 1008.4 |
| 20260506104009 | 59 | 71 | 1.0 | 4.0 | 0.00 | 0.00 | 0.00 | 75 | 1008.5 |
| 20260506103508 | 59 | 86 | 1.0 | 4.0 | 0.00 | 0.00 | 0.00 | 75 | 1008.6 |
| 20260506103029 | 58 | 69 | 0.0 | 2.0 | 0.00 | 0.00 | 0.00 | 74 | 1008.5 |
| 20260506102510 | 58 | 131 | 0.0 | 3.0 | 0.00 | 0.00 | 0.00 | 74 | 1008.5 |
| 20260506102010 | 59 | 130 | 0.0 | 3.0 | 0.00 | 0.00 | 0.00 | 73 | 1008.4 |
| 20260506101528 | 59 | 139 | 1.0 | 2.0 | 0.00 | 0.00 | 0.00 | 73 | 1008.4 |
| 20260506101011 | 59 | 145 | 0.0 | 3.0 | 0.00 | 0.00 | 0.00 | 73 | 1008.5 |
| 20260506100508 | 59 | 96 | 1.0 | 3.0 | 0.00 | 0.00 | 0.00 | 72 | 1008.4 |
| 20260506100033 | 59 | 169 | 1.0 | 3.0 | 0.00 | 0.00 | 0.00 | 72 | 1008.6 |
| 20260506095510 | 59 | 81 | 1.0 | 3.0 | 0.00 | 0.00 | 0.00 | 71 | 1008.7 |
| 20260506095007 | 59 | 116 | 1.0 | 3.0 | 0.00 | 0.00 | 0.00 | 71 | 1008.6 |
| 20260506094524 | 59 | 102 | 1.0 | 3.0 | 0.00 | 0.00 | 0.00 | 70 | 1008.6 |
| 20260506094009 | 59 | 146 | 1.0 | 3.0 | 0.00 | 0.00 | 0.00 | 70 | 1008.6 |
| 20260506093510 | 59 | 159 | 0.0 | 2.0 | 0.00 | 0.00 | 0.00 | 70 | 1008.6 |
| 20260506093028 | 59 | 140 | 0.0 | 2.0 | 0.00 | 0.00 | 0.00 | 70 | 1008.5 |
| 20260506092512 | 59 | 111 | 1.0 | 3.0 | 0.00 | 0.00 | 0.00 | 69 | 1008.6 |
| 20260506092011 | 60 | 109 | 1.0 | 3.0 | 0.00 | 0.00 | 0.00 | 69 | 1008.5 |
| 20260506091528 | 60 | 60 | 1.0 | 2.0 | 0.00 | 0.00 | 0.00 | 69 | 1008.6 |
| 20260506091010 | 60 | 104 | 0.0 | 3.0 | 0.00 | 0.00 | 0.00 | 68 | 1008.6 |
| 20260506090511 | 60 | 103 | 1.0 | 3.0 | 0.00 | 0.00 | 0.00 | 68 | 1008.5 |
| 20260506090016 | 60 | 115 | 0.0 | 2.0 | 0.00 | 0.00 | 0.00 | 68 | 1008.6 |
| 20260506085507 | 60 | 148 | 0.0 | 1.0 | 0.00 | 0.00 | 0.00 | 67 | 1008.7 |
| 20260506085007 | 60 | 151 | 0.0 | 3.0 | 0.00 | 0.00 | 0.00 | 67 | 1008.8 |
| 20260506084504 | 60 | 82 | 1.0 | 3.0 | 0.00 | 0.00 | 0.00 | 67 | 1008.8 |
| 20260506084004 | 60 | 133 | 0.0 | 2.0 | 0.00 | 0.00 | 0.00 | 67 | 1008.9 |
| 20260506083504 | 60 | 154 | 0.0 | 2.0 | 0.00 | 0.00 | 0.00 | 66 | 1008.9 |
| 20260506083006 | 60 | 143 | 0.0 | 3.0 | 0.00 | 0.00 | 0.00 | 66 | 1008.8 |
| 20260506082503 | 60 | 102 | 0.0 | 3.0 | 0.00 | 0.00 | 0.00 | 66 | 1008.8 |
| 20260506082003 | 60 | 148 | 1.0 | 3.0 | 0.00 | 0.00 | 0.00 | 65 | 1008.8 |
| 20260506081511 | 60 | 143 | 1.0 | 3.0 | 0.00 | 0.00 | 0.00 | 65 | 1008.9 |
| 20260506081006 | 60 | 137 | 1.0 | 4.0 | 0.00 | 0.00 | 0.00 | 65 | 1008.9 |
| 20260506080504 | 61 | 134 | 1.0 | 4.0 | 0.00 | 0.00 | 0.00 | 65 | 1008.8 |
| 20260506073510 | 61 | 151 | 2.0 | 4.0 | 0.00 | 0.00 | 0.00 | 63 | 1009.1 |
| 20260506073004 | 61 | 160 | 1.0 | 4.0 | 0.00 | 0.00 | 0.00 | 63 | 1009.1 |
| 20260506072504 | 60 | 131 | 1.0 | 3.0 | 0.00 | 0.00 | 0.00 | 65 | 1009.1 |
| 20260506072003 | 60 | 144 | 1.0 | 4.0 | 0.00 | 0.00 | 0.00 | 65 | 1009.1 |
| 20260506071508 | 61 | 75 | 1.0 | 4.0 | 0.00 | 0.00 | 0.00 | 64 | 1009.0 |
| 20260506071004 | 61 | 141 | 1.0 | 2.0 | 0.00 | 0.00 | 0.00 | 63 | 1009.2 |
| 20260506070503 | 61 | 118 | 1.0 | 4.0 | 0.00 | 0.00 | 0.00 | 63 | 1009.1 |
| 20260506062507 | 61 | 139 | 0.0 | 2.0 | 0.00 | 0.00 | 0.00 | 63 | 1009.6 |
| 20260506062012 | 61 | 198 | 0.0 | 2.0 | 0.00 | 0.00 | 0.00 | 62 | 1009.7 |
| 20260506061534 | 61 | 148 | 1.0 | 2.0 | 0.00 | 0.00 | 0.00 | 62 | 1009.8 |
| 20260506061006 | 61 | 165 | 1.0 | 2.0 | 0.00 | 0.00 | 0.00 | 62 | 1009.9 |
| 20260506060508 | 61 | 155 | 0.0 | 3.0 | 0.00 | 0.00 | 0.00 | 62 | 1009.9 |
| 20260506051011 | 61 | 108 | 1.0 | 2.0 | 0.00 | 0.00 | 0.00 | 60 | 1010.0 |
| 20260506050508 | 61 | 144 | 0.0 | 3.0 | 0.00 | 0.00 | 0.00 | 60 | 1010.1 |
| 20260506045004 | 62 | 140 | 0.0 | 2.0 | 0.00 | 0.00 | 0.00 | 59 | 1010.2 |
| 20260506044512 | 62 | 145 | 0.0 | 2.0 | 0.00 | 0.00 | 0.00 | 58 | 1010.2 |
| 20260506044008 | 62 | 136 | 1.0 | 3.0 | 0.00 | 0.00 | 0.00 | 58 | 1010.1 |
| 20260506043504 | 62 | 143 | 1.0 | 4.0 | 0.00 | 0.00 | 0.00 | 59 | 1010.2 |
| 20260506043015 | 62 | 145 | 1.0 | 4.0 | 0.00 | 0.00 | 0.00 | 58 | 1010.2 |
| 20260506042504 | 62 | 143 | 1.0 | 3.0 | 0.00 | 0.00 | 0.00 | 58 | 1010.1 |
| 20260506042008 | 62 | 141 | 1.0 | 3.0 | 0.00 | 0.00 | 0.00 | 58 | 1010.2 |
| 20260506041517 | 62 | 149 | 1.0 | 3.0 | 0.00 | 0.00 | 0.00 | 57 | 1010.2 |
| 20260506041007 | 62 | 140 | 0.0 | 4.0 | 0.00 | 0.00 | 0.00 | 57 | 1010.3 |
| 20260506040508 | 63 | 150 | 0.0 | 4.0 | 0.00 | 0.00 | 0.00 | 56 | 1010.3 |
| 20260506040026 | 62 | 152 | 1.0 | 4.0 | 0.00 | 0.00 | 0.00 | 57 | 1010.1 |
| 20260506035507 | 62 | 129 | 1.0 | 2.0 | 0.00 | 0.00 | 0.00 | 57 | 1010.2 |
| 20260506035008 | 63 | 108 | 1.0 | 4.0 | 0.00 | 0.00 | 0.00 | 57 | 1010.2 |
| 20260506034526 | 63 | 93 | 1.0 | 4.0 | 0.00 | 0.00 | 0.00 | 56 | 1010.2 |
| 20260506034008 | 63 | 141 | 1.0 | 3.0 | 0.00 | 0.00 | 0.00 | 55 | 1010.3 |
| 20260506033502 | 63 | 160 | 0.0 | 3.0 | 0.00 | 0.00 | 0.00 | 55 | 1010.3 |
| 20260506033015 | 64 | 141 | 1.0 | 3.0 | 0.00 | 0.00 | 0.00 | 54 | 1010.2 |
| 20260506032503 | 64 | 149 | 1.0 | 4.0 | 0.00 | 0.00 | 0.00 | 54 | 1010.2 |
| 20260506032007 | 64 | 148 | 1.0 | 4.0 | 0.00 | 0.00 | 0.00 | 54 | 1010.1 |
| 20260506031521 | 64 | 183 | 1.0 | 3.0 | 0.00 | 0.00 | 0.00 | 54 | 1010.1 |
| 20260506031006 | 64 | 92 | 1.0 | 3.0 | 0.00 | 0.00 | 0.00 | 53 | 1010.1 |
| 20260506030506 | 64 | 161 | 1.0 | 4.0 | 0.00 | 0.00 | 0.00 | 53 | 1010.1 |
| 20260506030017 | 64 | 140 | 2.0 | 4.0 | 0.00 | 0.00 | 0.00 | 52 | 1010.1 |
| 20260506025509 | 64 | 153 | 1.0 | 4.0 | 0.00 | 0.00 | 0.00 | 53 | 1010.1 |
| 20260506025006 | 65 | 59 | 1.0 | 4.0 | 0.00 | 0.00 | 0.00 | 52 | 1010.2 |
| 20260506024536 | 65 | 158 | 2.0 | 4.0 | 0.00 | 0.00 | 0.00 | 51 | 1010.2 |
| 20260506024013 | 65 | 155 | 1.0 | 4.0 | 0.00 | 0.00 | 0.00 | 51 | 1010.2 |
| 20260506023513 | 65 | 150 | 1.0 | 5.0 | 0.00 | 0.00 | 0.00 | 51 | 1010.3 |
| 20260506023027 | 65 | 147 | 2.0 | 5.0 | 0.00 | 0.00 | 0.00 | 51 | 1010.2 |
| 20260506022509 | 66 | 133 | 1.0 | 4.0 | 0.00 | 0.00 | 0.00 | 50 | 1010.3 |
| 20260506022002 | 66 | 121 | 2.0 | 4.0 | 0.00 | 0.00 | 0.00 | 50 | 1010.3 |
| 20260506021511 | 66 | 76 | 1.0 | 5.0 | 0.00 | 0.00 | 0.00 | 50 | 1010.3 |
| 20260506021002 | 66 | 134 | 2.0 | 5.0 | 0.00 | 0.00 | 0.00 | 50 | 1010.3 |
| 20260506020502 | 66 | 50 | 1.0 | 4.0 | 0.00 | 0.00 | 0.00 | 51 | 1010.3 |
| 20260506020014 | 66 | 134 | 1.0 | 4.0 | 0.00 | 0.00 | 0.00 | 51 | 1010.3 |
| 20260506015508 | 66 | 131 | 2.0 | 4.0 | 0.00 | 0.00 | 0.00 | 49 | 1010.3 |
| 20260506015006 | 67 | 137 | 1.0 | 3.0 | 0.00 | 0.00 | 0.00 | 49 | 1010.2 |
| 20260506014522 | 66 | 156 | 1.0 | 3.0 | 0.00 | 0.00 | 0.00 | 49 | 1010.1 |
| 20260506014006 | 67 | 108 | 1.0 | 4.0 | 0.00 | 0.00 | 0.00 | 50 | 1010.1 |
| 20260506013507 | 67 | 131 | 1.0 | 4.0 | 0.00 | 0.00 | 0.00 | 49 | 1010.0 |
| 20260506013027 | 67 | 89 | 1.0 | 4.0 | 0.00 | 0.00 | 0.00 | 49 | 1009.9 |
| 20260506012509 | 67 | 141 | 1.0 | 4.0 | 0.00 | 0.00 | 0.00 | 50 | 1009.9 |
| 20260506012009 | 67 | 148 | 1.0 | 4.0 | 0.00 | 0.00 | 0.00 | 49 | 1009.9 |
| 20260506011555 | 67 | 122 | 1.0 | 3.0 | 0.00 | 0.00 | 0.00 | 47 | 1009.8 |
| 20260506011008 | 68 | 95 | 1.0 | 5.0 | 0.00 | 0.00 | 0.00 | 47 | 1009.8 |
| 20260506010506 | 68 | 127 | 2.0 | 5.0 | 0.00 | 0.00 | 0.00 | 46 | 1009.6 |
| 20260506010010 | 68 | 72 | 2.0 | 4.0 | 0.00 | 0.00 | 0.00 | 46 | 1009.5 |
| 20260506005503 | 68 | 125 | 2.0 | 4.0 | 0.00 | 0.00 | 0.00 | 46 | 1009.5 |
| 20260506005006 | 68 | 146 | 1.0 | 4.0 | 0.00 | 0.00 | 0.00 | 46 | 1009.5 |
| 20260506004519 | 68 | 73 | 2.0 | 4.0 | 0.00 | 0.00 | 0.00 | 45 | 1009.5 |
| 20260506004007 | 68 | 144 | 2.0 | 4.0 | 0.00 | 0.00 | 0.00 | 46 | 1009.4 |
| 20260506003509 | 68 | 138 | 2.0 | 4.0 | 0.00 | 0.00 | 0.00 | 45 | 1009.3 |
| 20260506003022 | 69 | 113 | 2.0 | 4.0 | 0.00 | 0.00 | 0.00 | 44 | 1009.2 |
| 20260506002509 | 68 | 58 | 1.0 | 4.0 | 0.00 | 0.00 | 0.00 | 46 | 1009.3 |
| 20260506002009 | 69 | 174 | 2.0 | 4.0 | 0.00 | 0.00 | 0.00 | 45 | 1009.2 |
| 20260506001524 | 69 | 103 | 1.0 | 3.0 | 0.00 | 0.00 | 0.00 | 46 | 1009.1 |
| 20260506001006 | 69 | 160 | 1.0 | 3.0 | 0.00 | 0.00 | 0.00 | 46 | 1009.1 |
| 20260506000514 | 69 | 148 | 2.0 | 4.0 | 0.00 | 0.00 | 0.00 | 45 | 1009.1 |
| 20260506000045 | 69 | 135 | 1.0 | 4.0 | 0.00 | 0.00 | 0.00 | 45 | 1009.1 |
| 20260505235509 | 69 | 159 | 2.0 | 4.0 | 0.00 | 0.00 | 0.00 | 46 | 1009.1 |
| 20260505235011 | 69 | 143 | 1.0 | 3.0 | 0.00 | 0.00 | 0.00 | 44 | 1009.1 |
| 20260505234526 | 70 | 121 | 2.0 | 3.0 | 0.00 | 0.00 | 0.00 | 45 | 1009.1 |
| 20260505234005 | 69 | 130 | 1.0 | 4.0 | 0.00 | 0.00 | 0.00 | 45 | 1008.9 |
| 20260505233506 | 70 | 115 | 2.0 | 4.0 | 0.00 | 0.00 | 0.00 | 44 | 1008.9 |
| 20260505233017 | 70 | 131 | 1.0 | 4.0 | 0.00 | 0.00 | 0.00 | 45 | 1009.0 |
| 20260505232512 | 70 | 117 | 2.0 | 4.0 | 0.00 | 0.00 | 0.00 | 44 | 1008.9 |
| 20260505232009 | 70 | 146 | 1.0 | 3.0 | 0.00 | 0.00 | 0.00 | 44 | 1008.9 |
| 20260505231521 | 70 | 141 | 1.0 | 3.0 | 0.00 | 0.00 | 0.00 | 44 | 1008.9 |
| 20260505231006 | 69 | 143 | 1.0 | 3.0 | 0.00 | 0.00 | 0.00 | 45 | 1008.9 |
| 20260505230509 | 69 | 144 | 0.0 | 2.0 | 0.00 | 0.00 | 0.00 | 45 | 1008.9 |
| 20260505230047 | 70 | 119 | 1.0 | 3.0 | 0.00 | 0.00 | 0.00 | 44 | 1008.9 |
| 20260505225518 | 70 | 132 | 1.0 | 3.0 | 0.00 | 0.00 | 0.00 | 43 | 1008.9 |
| 20260505225009 | 70 | 134 | 1.0 | 3.0 | 0.00 | 0.00 | 0.00 | 44 | 1008.7 |
| 20260505224536 | 70 | 155 | 1.0 | 4.0 | 0.00 | 0.00 | 0.00 | 42 | 1008.7 |
| 20260505224011 | 70 | 131 | 2.0 | 4.0 | 0.00 | 0.00 | 0.00 | 42 | 1008.7 |
| 20260505223511 | 70 | 141 | 1.0 | 5.0 | 0.00 | 0.00 | 0.00 | 43 | 1008.7 |
| 20260505223016 | 70 | 141 | 1.0 | 5.0 | 0.00 | 0.00 | 0.00 | 42 | 1008.7 |
| 20260505222510 | 71 | 138 | 1.0 | 4.0 | 0.00 | 0.00 | 0.00 | 43 | 1008.7 |
| 20260505222007 | 71 | 145 | 1.0 | 9.0 | 0.00 | 0.00 | 0.00 | 43 | 1008.6 |
| 20260505221521 | 71 | 78 | 2.0 | 9.0 | 0.00 | 0.00 | 0.00 | 41 | 1008.6 |
| 20260505221004 | 71 | 146 | 2.0 | 8.0 | 0.00 | 0.00 | 0.00 | 42 | 1008.6 |
| 20260505220508 | 71 | 96 | 2.0 | 6.0 | 0.00 | 0.00 | 0.00 | 42 | 1008.5 |
| 20260505220019 | 71 | 149 | 2.0 | 6.0 | 0.00 | 0.00 | 0.00 | 43 | 1008.5 |
| 20260505215511 | 71 | 101 | 2.0 | 6.0 | 0.00 | 0.00 | 0.00 | 42 | 1008.5 |
| 20260505215007 | 71 | 141 | 1.0 | 5.0 | 0.00 | 0.00 | 0.00 | 42 | 1008.4 |
| 20260505214529 | 71 | 163 | 3.0 | 5.0 | 0.00 | 0.00 | 0.00 | 42 | 1008.5 |
| 20260505214010 | 71 | 111 | 2.0 | 7.0 | 0.00 | 0.00 | 0.00 | 43 | 1008.5 |
| 20260505213510 | 72 | 138 | 1.0 | 7.0 | 0.00 | 0.00 | 0.00 | 42 | 1008.3 |
| 20260505213026 | 72 | 130 | 2.0 | 6.0 | 0.00 | 0.00 | 0.00 | 41 | 1008.3 |
| 20260505212510 | 72 | 97 | 3.0 | 7.0 | 0.00 | 0.00 | 0.00 | 42 | 1008.3 |
| 20260505212013 | 72 | 149 | 3.0 | 8.0 | 0.00 | 0.00 | 0.00 | 41 | 1008.2 |
| 20260505211529 | 72 | 43 | 2.0 | 8.0 | 0.00 | 0.00 | 0.00 | 43 | 1008.2 |
| 20260505211004 | 73 | 94 | 2.0 | 7.0 | 0.00 | 0.00 | 0.00 | 41 | 1008.2 |
| 20260505210506 | 73 | 128 | 3.0 | 8.0 | 0.00 | 0.00 | 0.00 | 39 | 1008.2 |
| 20260505210023 | 73 | 117 | 3.0 | 8.0 | 0.00 | 0.00 | 0.00 | 38 | 1008.3 |
| 20260505205506 | 73 | 184 | 4.0 | 8.0 | 0.00 | 0.00 | 0.00 | 37 | 1008.1 |
| 20260505205008 | 73 | 139 | 4.0 | 8.0 | 0.00 | 0.00 | 0.00 | 35 | 1008.0 |
| 20260505204523 | 74 | 152 | 3.0 | 7.0 | 0.00 | 0.00 | 0.00 | 36 | 1007.9 |
| 20260505204009 | 74 | 148 | 3.0 | 7.0 | 0.00 | 0.00 | 0.00 | 35 | 1008.2 |
| 20260505203514 | 74 | 181 | 3.0 | 6.0 | 0.00 | 0.00 | 0.00 | 34 | 1008.2 |
| 20260505203026 | 73 | 64 | 2.0 | 6.0 | 0.00 | 0.00 | 0.00 | 36 | 1008.2 |
| 20260505202510 | 74 | 143 | 2.0 | 8.0 | 0.00 | 0.00 | 0.00 | 35 | 1008.2 |